Location: Los Gatos B&B
(42.6926°N, 77.0646°W)
Time: 03:17:09
(UTC-04:00)

Daily predictions for brighter satellites

Satellite Brightness Start Highest point End
(mag) Time Altitude Azimuth Time Altitude Azimuth Time Altitude Azimuth
Cosmos 2369 Rocket 4.3 03:47:10 23° NE 03:47:10 23° NE 03:49:14 10° NE
USA 215 4.1 04:06:07 10° NE 04:10:48 41° N 04:10:48 41° N
USA 229 DEB 4.2 04:25:37 50° SE 04:26:19 52° ESE 04:32:59 10° NE
USA 229 4.2 04:25:41 49° SE 04:26:25 52° ESE 04:33:03 10° NE
CZ-3 R/B 4.4 04:29:13 42° WSW 04:37:16 49° SSW 04:48:58 10° SE
CENTAUR R/B 4.4 04:37:25 19° NNW 04:37:25 19° NNW 04:42:20 10° NNE
BREEZE-M DEB (TANK) 4.1 04:40:07 34° ESE 04:40:07 34° ESE 04:45:32 10° ENE
Lacrosse 5 3.6 04:43:15 24° N 04:43:15 24° N 04:45:55 10° NNE
CZ-4C R/B 2.9 04:40:23 48° NNW 04:42:44 82° NE 04:50:46 10° SE
USA 267 3.6 04:37:05 10° SE 04:42:04 51° S 04:42:04 51° S
Nadezhda 1 Rocket 4.2 04:42:38 39° SSE 04:45:06 69° E 04:51:26 10° NNE
Cosmos 1943 Rocket 2.6 04:47:55 53° NNE 04:47:55 53° NNE 04:52:09 10° NNE
ADEOS II 2.3 04:48:02 10° NNE 04:52:27 63° NNE 04:52:27 63° NNE
Tiangong 2 4.1 05:00:31 15° ESE 05:00:31 15° ESE 05:01:11 10° ESE
Cosmos 2150 Rocket 3.9 05:06:05 83° SSW 05:06:18 90° ESE 05:11:39 10° NNE
Okean O Rocket 2.1 05:02:04 10° NNE 05:06:25 57° E 05:07:32 43° SSE
Cosmos 1898 Rocket 4.1 05:09:50 44° NNW 05:09:50 44° NNW 05:13:40 10° NNE
Cosmos 1937 Rocket 3.4 05:10:36 73° NW 05:10:36 73° NW 05:15:48 10° NNE
Cosmos 489 Rocket 4.4 05:14:20 56° W 05:14:41 57° WNW 05:20:51 10° NNE
Cosmos 2154 Rocket 3.9 05:09:51 10° N 05:16:14 90° E 05:22:32 10° S
Cosmos 44 Rocket 4.1 05:20:57 37° S 05:20:57 37° S 05:24:08 10° SSE
Cosmos 1758 Rocket 3.6 05:18:13 40° S 05:19:47 78° E 05:24:19 10° N
Cosmos-2242 4.1 05:16:42 10° N 05:20:50 45° ENE 05:24:59 10° SSE
Cosmos 2369 Rocket 3.4 05:28:59 25° NW 05:28:59 25° NW 05:32:46 10° N
Cosmos 2227 Rocket 4.4 05:24:00 10° N 05:28:33 24° NE 05:33:04 10° ESE
Meteor 2-19 Rocket 4.5 05:24:11 10° NNW 05:30:10 55° W 05:36:08 10° SSW
ERBS 3.9 05:32:06 27° N 05:33:02 31° NE 05:36:10 10° E
Cosmos 990 Rocket 4.1 05:32:36 50° W 05:33:03 51° WNW 05:38:06 10° N
Meteor 1-31 Rocket 2.9 05:36:56 10° NNE 05:40:44 70° ESE 05:44:31 10° S
Cosmos 1340 Rocket 3.9 05:42:35 30° NNW 05:42:35 30° NNW 05:45:05 10° N
Cosmos 2298 Rocket 4.4 05:40:54 40° W 05:41:28 41° WNW 05:46:31 10° N
RUBIN 8/PSLV 4.4 05:37:42 10° N 05:41:59 67° WNW 05:44:10 28° SSW
Milstar 3 4.1 05:43:13 18° SW 05:46:06 24° S 05:52:01 10° SE
CZ-4B R/B 4.5 05:45:15 10° N 05:46:27 18° NNW 05:46:27 18° NNW
Cosmos 1048 Rocket 4.4 05:43:40 10° NNW 05:48:50 64° ENE 05:54:01 10° SSE
Cosmos 1707 2.9 05:51:03 45° W 05:51:28 47° W 05:55:18 10° N
Cosmos 2218 Rocket 4.4 05:47:23 10° N 05:53:36 67° E 05:59:51 10° SSE
Cosmos 962 Rocket 4.4 05:48:27 10° NNW 05:54:31 64° W 06:00:32 10° S
Cosmos 2219 3.2 05:49:07 10° NNW 05:54:50 89° ENE 06:00:28 10° SSE
APEX 3.8 05:57:23 37° W 05:57:42 37° WSW 06:01:56 10° S
SJ-6F 4.3 05:54:01 10° NNE 05:58:07 88° ESE 06:02:11 10° SSW
Meteor 2-5 Rocket 3.7 05:54:58 10° SSW 06:00:52 75° W 06:06:44 10° N
Cosmos 1378 3.7 06:01:44 35° W 06:02:06 36° WNW 06:05:38 10° N
Meteor 2-14 Rocket 4.4 05:56:02 10° N 06:02:08 90° SE 06:08:12 10° S
PAYLOAD B 4.5 05:59:53 10° N 06:05:07 46° WNW 06:10:20 10° SW
Cosmos 2341 Rocket 4.1 06:00:12 10° NNW 06:06:24 54° W 06:12:34 10° SSW
Cosmos 2297 Rocket 3.7 06:01:32 10° N 06:06:46 37° ENE 06:11:57 10° SE
Cosmos 158 Rocket 4.0 06:01:49 10° NNW 06:07:13 74° WSW 06:12:35 10° S
GPS 2-04 Rocket1 4.4 06:07:14 16° SW 06:08:07 17° SSW 06:10:36 10° SSE
Cosmos 2181 Rocket 4.0 06:04:08 10° SSW 06:10:19 63° W 06:16:27 10° N
Cosmos 1953 Rocket 4.2 06:09:03 21° WSW 06:11:02 31° WNW 06:14:54 10° NNW
USA 81 4.0 06:07:38 10° S 06:12:53 73° W 06:18:10 10° N
Cosmos 1656 Rocket 4.2 06:09:35 18° WSW 06:13:17 38° WNW 06:18:34 10° N
EO 1 Del DPAF 3.2 06:09:53 10° SSE 06:13:42 87° W 06:17:34 10° NNW
SJ 16-02 1.3 06:09:44 10° SSW 06:14:08 85° WNW 06:18:33 10° NNE
NOSS 3-1 (C) 3.4 06:10:27 12° SW 06:15:45 63° NW 06:22:14 10° NNE
USA 229 DEB 4.3 06:13:07 19° W 06:17:29 38° NW 06:23:57 10° NNE
USA 229 4.3 06:13:10 19° W 06:17:34 38° NW 06:24:02 10° NNE
Meteor 1-16 Rocket 4.4 06:14:01 10° NNW 06:19:27 48° W 06:24:59 10° SSW
In-Cosmos 22 4.3 06:13:58 10° S 06:19:33 86° E 06:25:19 10° N
NOSS 3-1 (A) 3.3 06:15:28 10° SW 06:21:14 78° NW 06:27:46 10° NE
CZ-4B R/B 4.5 06:19:03 10° N 06:23:15 42° WNW 06:27:29 10° SW
SL-08 R/B 4.5 06:19:17 10° N 06:25:29 84° W 06:31:44 10° S
Lacrosse 5 3.9 06:22:46 10° NW 06:25:54 16° N 06:29:03 10° NNE
SKYMED 2 3.5 06:21:38 10° SSE 06:25:59 86° W 06:30:20 10° NNW
Cosmos 1959 Rocket 4.5 06:21:01 10° NNW 06:27:18 70° W 06:33:28 10° S
MINOTAUR R/B 4.1 06:25:33 10° NNW 06:28:14 87° WSW 06:30:51 10° SSE
CZ-4B R/B 3.8 06:23:27 10° N 06:28:17 34° WNW 06:33:12 10° SW
Cosmos 1356 Rocket 4.2 06:26:27 10° SW 06:30:18 32° WNW 06:34:11 10° N
CZ-4C R/B 3.9 06:25:41 12° WNW 06:30:52 24° WSW 06:36:52 10° SSW
Cosmos 1943 Rocket 3.8 06:29:27 13° WNW 06:31:16 15° NW 06:34:16 10° NNW
ADEOS II 3.7 06:29:50 10° NNW 06:32:17 13° WNW 06:33:24 13° WNW
Tiangong 2 2.8 06:32:51 14° WSW 06:34:33 21° SSW 06:37:03 10° SSE
Cosmos 1269 Rocket 4.1 06:30:01 10° NNW 06:35:15 59° WSW 06:40:26 10° S
Cosmos 1356 3.6 06:33:42 10° SSW 06:37:04 48° WNW 06:40:28 10° N
USA 116 4.4 06:34:54 10° SSW 06:37:58 28° W 06:41:25 10° NW
Meteor 1-28 Rocket 4.0 06:38:41 10° SSW 06:42:02 29° W 06:45:25 10° NW
Okean O Rocket 3.2 06:39:49 10° NNW 06:42:20 15° WNW 06:44:50 10° W
ATLAS 3B R/B 4.3 06:39:02 10° NNW 06:44:47 28° NE 06:50:19 10° E
IDEFIX/ARIANE 42P 2.7 06:40:13 10° NNE 06:45:29 83° ESE 06:50:42 10° SSW
Thor Agena Rocket 4.0 06:41:15 10° SSE 06:46:30 71° ENE 06:51:43 10° N
Cosmos 372 Rocket 4.5 06:46:32 10° SW 06:51:24 39° WNW 06:56:21 10° N
Okean-O 3.1 06:52:06 10° N 06:56:15 40° WNW 07:00:22 10° SW
PAYLOAD A 3.8 06:53:55 10° N 06:58:35 67° WNW 07:03:20 10° SSW
Cosmos 2278 3.9 06:53:39 10° SSW 06:59:17 80° ESE 07:04:58 10° NNE
Cosmos 2366 rocket 4.3 06:54:33 10° NNW 07:00:16 42° W 07:06:00 10° SSW
Cosmos 1125 Rocket 4.3 06:57:02 10° WSW 07:01:39 30° WNW 07:06:18 10° N
NOAA 6 4.4 06:56:56 10° N 07:01:48 42° WNW 07:06:37 10° SW
